Location: Unspecified
(0.0000°N, 0.0000°E)
Time: 11:04:35
(UTC+00:00)

DMSP 5D-3 F18 (USA 210) - Pass Details

Date: 21 February 2019
Orbit: 841 x 856 km, 98.6° (Epoch: 19 March)

Event Time Altitude Azimuth Distance (km) Brightness Sun altitude
Rises 04:56:50 0° 26° (NNE) 3,409 8.0 -18.9°
Reaches altitude 10° 04:59:20 10° 33° (NNE) 2,474 7.4 -18.3°
Maximum altitude 05:04:28 41° 103° (ESE) 1,209 6.1 -17.0°
Drops below altitude 10° 05:09:36 10° 172° (S) 2,475 7.4 -15.7°
Sets 05:12:05 0° 179° (S) 3,411 8.0 -15.1°
